This is the latest recevied weather packets stored in our database for station/object DB0OHL. If no packets are shown the sender has not sent any weather packets the latest 10 day(s).
| Time | Temp. | Humidity | Pressure | Rain* | Wind** | Luminosity | Snow |
|---|---|---|---|---|---|---|---|
| 1778148372 | 13.33° C | 78% | 1014.1 hPa | 0 mm | - | - | - |
| 1778147770 | 12.78° C | 79% | 1014.3 hPa | 0 mm | - | - | - |
| 1778147167 | 13.33° C | 76% | 1014.1 hPa | 0 mm | - | - | - |
| 1778146565 | 12.78° C | 78% | 1014.2 hPa | 0 mm | - | - | - |
| 1778145962 | 13.33° C | 77% | 1014.2 hPa | 0 mm | - | - | - |
| 1778145360 | 13.89° C | 78% | 1014.2 hPa | 0 mm | - | - | - |
| 1778144757 | 13.33° C | 82% | 1014.2 hPa | 0 mm | - | - | - |
| 1778144155 | 12.22° C | 82% | 1014.2 hPa | 0 mm | - | - | - |
| 1778143552 | 13.33° C | 83% | 1014.2 hPa | 0 mm | - | - | - |
| 1778142950 | 12.22° C | 86% | 1014.2 hPa | 0 mm | - | - | - |
| 1778142347 | 11.11° C | 88% | 1014.2 hPa | 0 mm | - | - | - |
| 1778141745 | 10.56° C | 90% | 1014.2 hPa | 0 mm | - | - | - |
| 1778141142 | 10° C | 90% | 1014.3 hPa | 0 mm | - | - | - |
| 1778140540 | 10° C | 89% | 1014.2 hPa | 0 mm | - | - | - |
| 1778139937 | 10° C | 94% | 1014.2 hPa | 0 mm | - | - | - |
| 1778139334 | 9.44° C | 95% | 1014.2 hPa | 0 mm | - | - | - |
| 1778138732 | 8.89° C | 97% | 1014.1 hPa | 0 mm | - | - | - |
| 1778138129 | 8.89° C | 97% | 1014.3 hPa | 0 mm | - | - | - |
| 1778137527 | 8.89° C | 97% | 1014.2 hPa | 0 mm | - | - | - |
| 1778136924 | 7.78° C | 98% | 1014.3 hPa | 0 mm | - | - | - |
| 1778136322 | 7.78° C | 98% | 1014.2 hPa | 0 mm | - | - | - |
| 1778135719 | 7.78° C | 99% | 1014.2 hPa | 0 mm | - | - | - |
| 1778135117 | 7.22° C | 99% | 1014.1 hPa | 0 mm | - | - | - |
| 1778134574 | 7.22° C | 99% | 1014 hPa | 0 mm | - | - | - |
| 1778133972 | 6.67° C | 99% | 1014 hPa | 0 mm | - | - | - |
* Rain latest hour (hover to see other rain measurements)
** Current wind speed in m/s (hover to see current wind gust speed)